Regional Weather Roundup
Issued by NWS Newport/Morehead, NC

Home | Current Version | Previous Version | Text Only | Print | Product List | Glossary On
Versions: 1 2 3 4 5 6 7 8 9 10 11 12 13 14 15 16 17 18 19 20 21 22 23 24 25 26 27 28 29 30 31 32 33 34 35 36 37 38 39 40 41 42 43 44 45 46 47 48 49 50
000
ASUS42 KMHX 191425
RWRMHX
WEATHER ROUNDUP FOR EASTERN NORTH CAROLINA
NATIONAL WEATHER SERVICE NEWPORT/MOREHEAD CITY NC
900 AM EST SUN NOV 19 2017

NOTE: "FAIR" INDICATES FEW OR NO CLOUDS BELOW 12,000 FEET
WITH NO SIGNIFICANT WEATHER AND/OR OBSTRUCTIONS TO VISIBILITY

NCZ015>017-031-032-045>047-102-103-191500-
NORTH COAST

CITY           SKY/WX    TMP DP  RH WIND       PRES   REMARKS
EDENTON        CLOUDY    58  46  64 NW15G21   29.71R
ELIZABETH CITY CLOUDY    59  54  83 W22G33    29.66R
KITTY HAWK     CLOUDY    57  55  91 W10G21    29.62R
MANTEO         CLOUDY    60  55  86 W10G16    29.66R

$$

NCZ045>047-081-094-103-104-191500-
CENTRAL COAST

CITY           SKY/WX    TMP DP  RH WIND       PRES   REMARKS
FRISCO         LGT RAIN  64  62  93 SW18G31   29.66S FOG

$$

NCZ095-097-098-100-101-191500-
SOUTHERN COAST

CITY           SKY/WX    TMP DP  RH WIND       PRES   REMARKS
BEAUFORT       CLOUDY    65  61  87 SW17G28   29.70R
CEDAR ISLAND   NOT AVBL
JACKSONVILLE   NOT AVBL
PINEY ISLAND   NOT AVBL
WILMINGTON     PTSUNNY   63  52  67 NW16G31   29.76R


$$

NCZ011>013-027>030-043-044-078>080-089-090>093-098-191500-
COASTAL PLAIN

CITY           SKY/WX    TMP DP  RH WIND       PRES   REMARKS
AHOSKIE        MOSUNNY   55  40  56 NW3       29.71R
CLINTON        MOSUNNY   57  43  60 NW7       29.80R
ELIZABETHTOWN  NOT AVBL
GOLDSBORO      MOSUNNY   56  42  59 NW16      29.74R
GREENVILLE     CLOUDY    55  41  58 NW9G21    29.77R
HAVELOCK       NOT AVBL
KENANSVILLE    CLOUDY    59  45  58 NW13G21   29.77R
KINSTON        CLOUDY    57  46  67 NW13      29.76R
NEW BERN       CLOUDY    59  56  89 W9        29.73R
RICHLANDS      CLOUDY    61  53  75 W7G18     29.75R
ROCKY MOUNT    MOSUNNY   55  40  56 W13G23    29.75R
WASHINGTON     CLOUDY    57  43  59 NW15G24   29.73R
WHITEVILLE     CLOUDY    61  46  58 W6        29.79R

$$

AMZ130-135-150-152-154-156-158-170-250-252-270-ANZ085-086-088-633-658-670-191500-
MARINE OBSERVATIONS

STATION/POSITION TIME  TEMP    WIND        PRES    WAVE   SWELL
                       AIR SEA DIR/SP/G            HT/PER HT/PER
                 (UTC) (F)     (DEG/KT/KT) (MB)    (FT/S) (FT/S)
CHESAPEAKE LIGHT NOT AVBL
64 E VA BEACH    1350   63 62  250/ 21/ 25 1001.8    8/ 8
DUCK             NOT AVBL
2 E DUCK         1400      62                N/A     2/ 8
OREGON INLET     NOT AVBL
13E OREGON INLT  1348      62                N/A     6/ 9
HATTERAS CG      NOT AVBL
DIAMOND BUOY     1410   65 65  250/ 27/ 33 1004.9
CAPE LOOKOUT     1400          240/ 17/ 22 1006.1
BEAUFORT LAB     NOT AVBL
30 SE NEW RVR IN 1408   67 70  240/ 19/ 25 1006.3
30 SE NEW RVR IN 1400      70                N/A    11/ 8   2/11
27 SE WRIGHTSVLE 1408   67 68  240/ 23/ 35 1006.6
5 SE WRIGHTSVLE  1408   65 64  260/ 12/ 17 1006.5
225 S CAPE HAT   1350   76 77  220/ 23/ 29 1010.4    6/ 6   2/11
41 SE CHARLESTON 1410   67 75  270/ 23/ 27 1009.1

$$



USA.gov is the U.S. government's official web portal to all federal, state and local government web resources and services.